Location: Unspecified
(0.0000°N, 0.0000°E)
Time: 04:11:58
(UTC+00:00)

Shinsei - Pass Details

Date: 17 May 2026
Orbit: 869 x 1860 km, 32.1° (Epoch: 10 June)

Event Time Altitude Azimuth Distance (km) Brightness Sun altitude
Exits shadow 03:28:32 16° 317° (NW) 3,642 12.2 -34.6°
Maximum altitude 03:31:05 18° 333° (NNW) 3,503 12.3 -34.0°
Drops below altitude 10° 03:37:33 10° 12° (NNE) 3,919 13.0 -32.5°
Sets 03:42:08 0° 30° (NNE) 4,734 13.8 -31.5°
